TimeEST,TemperatureF,Dew PointF,Humidity,Sea Level PressureIn,VisibilityMPH,Wind Direction,Wind SpeedMPH,Gust SpeedMPH,PrecipitationIn,Events,Conditions,WindDirDegrees,DateUTC
12:53 AM,53.1,45.0,74,29.89,10.0,South,9.2,-,N/A,,Clear,190,2013-01-12 05:53:00
1:53 AM,52.0,45.0,77,29.89,10.0,South,10.4,-,N/A,,Clear,190,2013-01-12 06:53:00
2:53 AM,51.1,45.0,80,29.92,10.0,South,10.4,-,N/A,,Clear,190,2013-01-12 07:53:00
3:53 AM,53.1,46.0,77,29.92,10.0,SSW,12.7,-,N/A,,Clear,200,2013-01-12 08:53:00
4:53 AM,52.0,46.0,80,29.91,10.0,South,11.5,-,N/A,,Clear,190,2013-01-12 09:53:00
5:53 AM,53.1,48.0,83,29.91,10.0,SSW,12.7,-,N/A,,Clear,200,2013-01-12 10:53:00
6:53 AM,53.1,48.9,86,29.93,10.0,SSW,11.5,18.4,N/A,,Clear,200,2013-01-12 11:53:00
7:53 AM,52.0,48.9,89,29.95,10.0,South,12.7,-,N/A,,Clear,190,2013-01-12 12:53:00
8:53 AM,53.1,48.9,86,29.98,8.0,SSW,11.5,-,N/A,,Clear,200,2013-01-12 13:53:00
9:22 AM,53.6,48.2,82,29.98,7.0,South,10.4,-,N/A,,Partly Cloudy,190,2013-01-12 14:22:00
9:35 AM,53.6,50.0,88,29.99,6.0,SSW,12.7,-,N/A,,Mostly Cloudy,200,2013-01-12 14:35:00
9:53 AM,53.1,50.0,89,29.99,6.0,South,11.5,-,N/A,,Overcast,190,2013-01-12 14:53:00
10:53 AM,55.0,51.1,86,30.01,8.0,SSW,10.4,-,N/A,,Mostly Cloudy,200,2013-01-12 15:53:00
11:53 AM,55.9,52.0,87,29.97,8.0,SSW,11.5,-,N/A,,Partly Cloudy,200,2013-01-12 16:53:00
12:53 PM,59.0,53.1,81,29.96,10.0,SW,12.7,-,N/A,,Clear,220,2013-01-12 17:53:00
1:53 PM,60.1,53.1,78,29.96,10.0,SSW,11.5,-,N/A,,Clear,200,2013-01-12 18:53:00
2:53 PM,60.1,53.1,78,29.97,10.0,SW,8.1,-,N/A,,Mostly Cloudy,220,2013-01-12 19:53:00
3:53 PM,60.1,53.1,78,29.97,10.0,SSW,5.8,-,N/A,,Mostly Cloudy,200,2013-01-12 20:53:00
4:24 PM,60.8,53.6,77,29.96,10.0,SSW,5.8,-,N/A,,Scattered Clouds,200,2013-01-12 21:24:00
4:53 PM,59.0,52.0,78,29.95,10.0,South,3.5,-,N/A,,Clear,190,2013-01-12 21:53:00
5:53 PM,54.0,50.0,86,29.94,9.0,Calm,Calm,-,N/A,,Scattered Clouds,0,2013-01-12 22:53:00
6:02 PM,53.6,51.8,94,29.94,9.0,SE,3.5,-,N/A,,Mostly Cloudy,130,2013-01-12 23:02:00
6:16 PM,55.4,50.0,82,29.92,9.0,East,3.5,-,N/A,,Scattered Clouds,100,2013-01-12 23:16:00
6:53 PM,55.0,51.1,86,29.93,9.0,ESE,6.9,-,N/A,,Mostly Cloudy,120,2013-01-12 23:53:00
8:53 PM,55.0,51.1,86,29.87,6.0,ESE,6.9,-,0.00,Rain,Light Rain,120,2013-01-13 01:53:00
9:17 PM,53.6,51.8,94,29.87,2.5,ESE,4.6,-,0.05,Rain,Rain,110,2013-01-13 02:17:00
9:34 PM,53.6,51.8,94,29.85,2.5,ESE,5.8,-,0.12,Rain,Rain,110,2013-01-13 02:34:00
9:37 PM,55.4,51.8,88,29.84,1.8,ESE,4.6,-,0.15,Rain,Heavy Rain,110,2013-01-13 02:37:00
9:53 PM,55.0,53.1,93,29.84,1.2,ESE,6.9,-,0.33,Rain,Heavy Rain,120,2013-01-13 02:53:00
10:10 PM,55.4,53.6,94,29.82,1.5,East,4.6,-,0.10,Rain,Rain,100,2013-01-13 03:10:00
10:17 PM,55.4,53.6,94,29.83,1.5,ESE,4.6,-,0.16,Rain,Heavy Rain,110,2013-01-13 03:17:00
10:53 PM,57.9,55.9,93,29.80,1.8,SE,8.1,-,0.41,Rain,Rain,130,2013-01-13 03:53:00
11:06 PM,57.2,55.4,94,29.77,5.0,ESE,8.1,-,0.00,Rain,Light Rain,120,2013-01-13 04:06:00
11:20 PM,59.0,57.2,94,29.76,7.0,SE,12.7,-,0.01,Rain,Light Rain,130,2013-01-13 04:20:00
11:31 PM,60.8,57.2,88,29.75,8.0,SE,17.3,-,0.01,Rain,Light Rain,140,2013-01-13 04:31:00
11:53 PM,61.0,57.9,90,29.74,10.0,South,17.3,-,0.01,,Overcast,170,2013-01-13 04:53:00